Preview of NWS' New Version of Forecast
This preview is not operational and should not be used for support decisions.

Regional Weather Roundup (RWR)

Issued by Gray - Portland, ME (GYX)

                            
000
ASUS41 KGYX 251605
RWRGYX
WEATHER ROUNDUP FOR MAINE AND NEW HAMPSHIRE
NATIONAL WEATHER SERVICE GRAY ME
1200 PM EDT TUE JUN 25 2019

MEZ002-005-006-010-012-015-018-020-021-024-026-027-029-251700-
MAINE
  
CITY           SKY/WX    TMP DP  RH WIND       PRES   REMARKS
PORTLAND       PTSUNNY   62  55  77 E9        29.96S                  
SANFORD        FAIR      65  59  81 VRB6      29.94S                  
BAR HARBOR     FAIR      72  47  40 S9        29.99F                  
WISCASSET      FAIR      68  54  60 SE8       29.97F                  
ROCKLAND       FAIR      63  54  72 E10       29.99S                  
FRYEBURG       CLOUDY    69  55  60 E3        29.95S                  
LEWISTONAUBURN FAIR      70  56  61 S10       29.94F                  
AUGUSTA        FAIR      71  47  42 S10       29.96S                  
WATERVILLE     FAIR      73  46  38 S9        29.94S                  
BANGOR         FAIR      75  46  35 S12       29.96F                  
GREENVILLE       N/A     69  44  40 VRB6      29.94F                  
MILLINOCKET    FAIR      74  46  36 VRB3      29.96F                  
HOULTON        FAIR      73  44  35 VRB5      29.96F                  
PRESQUE ISLE   FAIR      71  44  37 SE10      29.96F                  
FRENCHVILLE    FAIR      73  42  32 SE14G21   29.95F                  
CARIBOU        FAIR      72  43  35 S10G21    29.95F                  
$$

NHZ002-005-008-009-011-012-014-251700-
NEW HAMPSHIRE
  
CITY           SKY/WX    TMP DP  RH WIND       PRES   REMARKS
ROCHESTER      CLOUDY    66  59  78 E6        29.92S                  
NASHUA         LGT RAIN  67  66  97 E5        29.91F                  
MANCHESTER     LGT RAIN  67  62  84 E8        29.89F                  
CONCORD        LGT RAIN  65  60  84 E6        29.91F                  
LACONIA        LGT RAIN  65  59  81 E8        29.92F                  
PLYMOUTH       LGT RAIN  65  57  75 CALM      29.92S                  
BERLIN         LGT RAIN  68  52  56 S7        29.92R                  
WHITEFIELD     CLOUDY    70  54  56 SE10G20   29.88R                  
JAFFREY        LGT RAIN  64  60  87 CALM      29.91S FOG              
KEENE          LGT RAIN  67  64  90 VRB5      29.86F                  
LEBANON        LGT RAIN  65  58  78 E3        29.87F                  
MT WASHINGTON  LGT RAIN  48  46  93 S31G38      N/A                   
$$

VTZ005-007-008-251700-
VERMONT
  
CITY           SKY/WX    TMP DP  RH WIND       PRES   REMARKS
ST JOHNSBURY     N/A     64  57  78 MISG      29.86R                  
MONTPELIER     RAIN      60  58  92 S5        29.90S FOG              
BURLINGTON     LGT RAIN  65  62  90 SE9       29.77F FOG              
$$

MAZ007-012-024-CTZ003-RIZ002-NYZ038-NYZ072-251700-
SOUTHERN NEW ENGLAND AND NY
  
CITY           SKY/WX    TMP DP  RH WIND       PRES   REMARKS
WORCESTER      LGT RAIN  66  66 100 E3        29.91S FOG              
NANTUCKET      CLOUDY    64  62  93 SE12      29.95S                  
PROVIDENCE     LGT RAIN  70  68  93 S10       29.90F FOG              
HARTFORD       LGT RAIN  73  69  87 SE7       29.85S                  
ALBANY         RAIN      72  68  87 S10       29.80S FOG              
NEW YORK CITY  CLOUDY    76  71  85 VRB5      29.81S HAZE             
$$

ANZ081-ANZ082-ANZ150-NHZ014-MEZ023>029-251700-
COASTAL MARINE OBSERVATIONS
  
STATION/POSITION TIME  TEMP    WIND        PRES    WAVE
                       AIR SEA DIR/SP/G            HT/PER
                 (UTC) (F)     (DEG/KT/KT) (MB)    (FT/S)
ISLE OF SHOALS   1500   60     120/  6/  7 1013.0R
JEFFREYS LEDGE   1538      59                N/A     2/ 4
CASHES LEDGE BUO 1550   58 56  140/ 12/ 16 1014.8S   2/ 3
GEORGES BANK BUO 1550   58 54  140/  6/  8 1017.5F   3/ 7
$$

.............KEY..............
   WCI - WIND CHILL
   TC  - TEMPERATURE IN CELSIUS
   VSB - VISIBILITY IN MILES
   HX  - HEAT INDEX
   FAIR- INDICATES FEW OR NO CLOUDS BELOW 12,000 FT, WITH NO 
         SIGNIFICANT WEATHER AND/OR OBSTRUCTIONS TO VISIBILITY.